Torna al catalogo

CZ-6A DEB

AttivoSSO
NORAD 56263·DEBRIS·🇨🇳 China

Lanciato Nov 11, 2022 da Taiyuan Satellite Launch Center

Loading…

Prossimi Passaggi (prossime 24 ore)

TLE

AggiornatoSource: Space-Track

Epoca: Sep 14, 2026, 14:19 UTC

1 56263U 22151ACF 26257.59658982  .00001434  00000-0  32305-3 0  9995
2 56263  98.4903 301.3492 0116687 358.8477   1.2432 14.53921921184563

Traccia CZ-6A DEB in tempo reale con AllMySat

Download on the App Store